When you browse on this site, cookies collect data to enhance your experience and personalize the content and advertising you see.
Visit our Privacy Policy to learn more. By continuing to use the site, you agree to this use of cookies and data.
  • In Schweiz
  • Länderverzeichnis
  • Für 7 Tage
  • Wassertemperatur
  • Wetterkarte
  • Widgets
  • user-avatar
    Anmelden

    Stündliche Wetter Shalon-an-Shampan

    Heute, 3 Juni, Mittwoch

    Zeit Temperatur Niederschläge Wind Luftdruck Luftfeuchtigkeit
    00:00 +18°C° 0 mm 1 m/S 751 mmHg 82%
    01:00 +16°C° 0 mm 1 m/S 750 mmHg 84%
    02:00 +15°C° 0 mm 1 m/S 750 mmHg 85%
    03:00 +14°C° 0 mm 0 m/S 749 mmHg 86%
    04:00 +15°C° 0.2 mm 1 m/S 749 mmHg 87%
    05:00 +16°C° 0.2 mm 1 m/S 748 mmHg 87%
    06:00 +18°C° 0.2 mm 1 m/S 748 mmHg 87%
    07:00 +19°C° 0.5 mm 1 m/S 748 mmHg 83%
    08:00 +21°C° 0.5 mm 1 m/S 747 mmHg 79%
    09:00 +22°C° 0.5 mm 1 m/S 747 mmHg 76%
    10:00 +23°C° 0.8 mm 1 m/S 747 mmHg 71%
    11:00 +24°C° 0.8 mm 1 m/S 746 mmHg 65%
    12:00 +25°C° 0.8 mm 1 m/S 746 mmHg 60%
    13:00 +25°C° 0.8 mm 1 m/S 745 mmHg 63%
    14:00 +25°C° 0.8 mm 1 m/S 744 mmHg 65%
    15:00 +24°C° 0.8 mm 1 m/S 744 mmHg 67%
    16:00 +23°C° 1 mm 2 m/S 744 mmHg 74%
    17:00 +21°C° 1 mm 2 m/S 743 mmHg 80%
    18:00 +20°C° 1 mm 3 m/S 743 mmHg 87%
    19:00 +19°C° 0.1 mm 3 m/S 743 mmHg 88%
    20:00 +17°C° 0.1 mm 2 m/S 743 mmHg 90%
    21:00 +16°C° 0.1 mm 2 m/S 743 mmHg 91%
    22:00 +15°C° 0 mm 2 m/S 743 mmHg 92%
    23:00 +13°C° 0 mm 3 m/S 743 mmHg 92%

    Morgen, 4 Juni, Donnerstag

    Zeit Temperatur Niederschläge Wind Luftdruck Luftfeuchtigkeit
    00:00 +13°C° 0 mm 3 m/S 742 mmHg 93%
    01:00 +12°C° 0.1 mm 3 m/S 742 mmHg 94%
    02:00 +11°C° 0.1 mm 3 m/S 742 mmHg 94%
    03:00 +11°C° 0.1 mm 3 m/S 742 mmHg 94%
    04:00 +11°C° 0.1 mm 3 m/S 742 mmHg 95%
    05:00 +11°C° 0.1 mm 3 m/S 742 mmHg 95%
    06:00 +12°C° 0.1 mm 3 m/S 742 mmHg 95%
    07:00 +12°C° 0 mm 3 m/S 742 mmHg 92%
    08:00 +13°C° 0 mm 3 m/S 742 mmHg 89%
    09:00 +14°C° 0 mm 4 m/S 742 mmHg 86%
    10:00 +15°C° 0 mm 4 m/S 742 mmHg 81%
    11:00 +17°C° 0 mm 4 m/S 742 mmHg 77%
    12:00 +18°C° 0 mm 4 m/S 742 mmHg 72%
    13:00 +16°C° 0.3 mm 5 m/S 742 mmHg 75%
    14:00 +16°C° 0.3 mm 5 m/S 742 mmHg 77%
    15:00 +16°C° 0.3 mm 6 m/S 741 mmHg 80%
    16:00 +15°C° 0.1 mm 5 m/S 742 mmHg 80%
    17:00 +15°C° 0.1 mm 5 m/S 742 mmHg 81%
    18:00 +14°C° 0.1 mm 4 m/S 742 mmHg 81%
    19:00 +13°C° 0 mm 3 m/S 743 mmHg 83%
    20:00 +12°C° 0 mm 3 m/S 743 mmHg 85%
    21:00 +12°C° 0 mm 2 m/S 744 mmHg 87%
    22:00 +12°C° 0 mm 2 m/S 744 mmHg 88%
    23:00 +10°C° 0 mm 2 m/S 744 mmHg 90%

    übermorgen, 5 Juni, Freitag

    Zeit Temperatur Niederschläge Wind Luftdruck Luftfeuchtigkeit
    00:00 +9°C° 0 mm 2 m/S 744 mmHg 91%
    01:00 +8°C° 0 mm 2 m/S 744 mmHg 92%
    02:00 +8°C° 0 mm 2 m/S 744 mmHg 93%
    03:00 +8°C° 0 mm 2 m/S 744 mmHg 94%
    04:00 +9°C° 0 mm 3 m/S 744 mmHg 92%
    05:00 +8°C° 0 mm 4 m/S 744 mmHg 91%
    06:00 +9°C° 0 mm 5 m/S 743 mmHg 89%
    07:00 +10°C° 0.2 mm 6 m/S 743 mmHg 86%
    08:00 +11°C° 0.2 mm 6 m/S 743 mmHg 83%
    09:00 +12°C° 0.2 mm 7 m/S 743 mmHg 80%
    10:00 +12°C° 0.8 mm 7 m/S 743 mmHg 85%
    11:00 +11°C° 0.8 mm 7 m/S 743 mmHg 90%
    12:00 +10°C° 0.8 mm 7 m/S 743 mmHg 94%
    13:00 +11°C° 0.7 mm 7 m/S 743 mmHg 93%
    14:00 +12°C° 0.7 mm 7 m/S 743 mmHg 92%
    15:00 +13°C° 0.7 mm 6 m/S 743 mmHg 90%
    16:00 +13°C° 0.4 mm 6 m/S 743 mmHg 90%
    17:00 +13°C° 0.4 mm 5 m/S 743 mmHg 90%
    18:00 +13°C° 0.4 mm 4 m/S 743 mmHg 90%
    19:00 +12°C° 0.1 mm 4 m/S 744 mmHg 91%
    20:00 +12°C° 0.1 mm 4 m/S 744 mmHg 92%
    21:00 +12°C° 0.1 mm 5 m/S 745 mmHg 92%
    22:00 +11°C° 0.2 mm 4 m/S 745 mmHg 93%
    23:00 +11°C° 0.2 mm 3 m/S 744 mmHg 94%

    6 Juni, Samstag

    Zeit Temperatur Niederschläge Wind Luftdruck Luftfeuchtigkeit
    00:00 +11°C° 0.2 mm 3 m/S 744 mmHg 95%
    01:00 +11°C° 0.3 mm 3 m/S 744 mmHg 96%
    02:00 +11°C° 0.3 mm 3 m/S 744 mmHg 96%
    03:00 +11°C° 0.3 mm 3 m/S 744 mmHg 96%
    04:00 +12°C° 0.3 mm 3 m/S 744 mmHg 96%
    05:00 +12°C° 0.3 mm 3 m/S 745 mmHg 95%
    06:00 +12°C° 0.3 mm 4 m/S 745 mmHg 94%
    07:00 +13°C° 0.4 mm 4 m/S 745 mmHg 92%
    08:00 +13°C° 0.4 mm 5 m/S 745 mmHg 89%
    09:00 +14°C° 0.4 mm 5 m/S 745 mmHg 86%
    10:00 +15°C° 0.2 mm 5 m/S 745 mmHg 80%
    11:00 +15°C° 0.2 mm 6 m/S 745 mmHg 73%
    12:00 +16°C° 0.2 mm 6 m/S 745 mmHg 67%
    13:00 +16°C° 0.2 mm 6 m/S 745 mmHg 69%
    14:00 +16°C° 0.2 mm 5 m/S 745 mmHg 70%
    15:00 +16°C° 0.2 mm 5 m/S 745 mmHg 72%
    16:00 +17°C° 0.1 mm 4 m/S 745 mmHg 75%
    17:00 +16°C° 0.1 mm 3 m/S 745 mmHg 78%
    18:00 +16°C° 0.1 mm 3 m/S 745 mmHg 81%
    19:00 +13°C° 0 mm 3 m/S 746 mmHg 83%
    20:00 +12°C° 0 mm 2 m/S 746 mmHg 84%
    21:00 +9°C° 0 mm 2 m/S 747 mmHg 86%
    22:00 +8°C° 0 mm 2 m/S 747 mmHg 85%
    23:00 +9°C° 0 mm 1 m/S 747 mmHg 85%

    7 Juni, Sonntag

    Zeit Temperatur Niederschläge Wind Luftdruck Luftfeuchtigkeit
    00:00 +8°C° 0 mm 1 m/S 747 mmHg 84%
    01:00 +8°C° 0 mm 1 m/S 747 mmHg 83%
    02:00 +8°C° 0 mm 1 m/S 747 mmHg 82%
    03:00 +8°C° 0 mm 1 m/S 747 mmHg 81%
    04:00 +9°C° 0 mm 1 m/S 747 mmHg 81%
    05:00 +8°C° 0 mm 2 m/S 747 mmHg 82%
    06:00 +9°C° 0 mm 3 m/S 748 mmHg 83%
    07:00 +9°C° 0.1 mm 3 m/S 748 mmHg 82%
    08:00 +10°C° 0.1 mm 4 m/S 749 mmHg 81%
    09:00 +11°C° 0.1 mm 4 m/S 749 mmHg 80%
    10:00 +12°C° 0.3 mm 5 m/S 749 mmHg 75%
    11:00 +14°C° 0.3 mm 5 m/S 749 mmHg 71%
    12:00 +15°C° 0.3 mm 6 m/S 749 mmHg 66%
    13:00 +15°C° 0.1 mm 6 m/S 749 mmHg 65%
    14:00 +16°C° 0.1 mm 6 m/S 749 mmHg 63%
    15:00 +16°C° 0.1 mm 6 m/S 749 mmHg 61%
    16:00 +16°C° 0.1 mm 5 m/S 749 mmHg 67%
    17:00 +15°C° 0.1 mm 4 m/S 749 mmHg 73%
    18:00 +16°C° 0.1 mm 3 m/S 749 mmHg 79%
    19:00 +13°C° 0.1 mm 3 m/S 750 mmHg 82%
    20:00 +12°C° 0.1 mm 3 m/S 750 mmHg 85%
    21:00 +11°C° 0.1 mm 3 m/S 750 mmHg 87%
    22:00 +10°C° 0 mm 4 m/S 750 mmHg 89%
    23:00 +10°C° 0 mm 4 m/S 750 mmHg 91%

    8 Juni, Montag

    Zeit Temperatur Niederschläge Wind Luftdruck Luftfeuchtigkeit
    00:00 +8°C° 0 mm 4 m/S 750 mmHg 94%
    01:00 +8°C° 0 mm 4 m/S 750 mmHg 94%
    02:00 +8°C° 0 mm 4 m/S 750 mmHg 94%
    03:00 +7°C° 0 mm 5 m/S 749 mmHg 95%
    04:00 +8°C° 0 mm 5 m/S 750 mmHg 93%
    05:00 +9°C° 0 mm 6 m/S 750 mmHg 92%
    06:00 +9°C° 0 mm 6 m/S 750 mmHg 90%
    07:00 +10°C° 0 mm 6 m/S 750 mmHg 88%
    08:00 +11°C° 0 mm 6 m/S 750 mmHg 86%
    09:00 +11°C° 0 mm 6 m/S 750 mmHg 84%
    10:00 +14°C° 0.4 mm 6 m/S 750 mmHg 81%
    11:00 +15°C° 0.4 mm 6 m/S 751 mmHg 78%
    12:00 +16°C° 0.4 mm 6 m/S 751 mmHg 76%
    13:00 +16°C° 0.6 mm 6 m/S 751 mmHg 77%
    14:00 +16°C° 0.6 mm 6 m/S 750 mmHg 78%
    15:00 +16°C° 0.6 mm 6 m/S 750 mmHg 79%
    16:00 +15°C° 0.3 mm 5 m/S 750 mmHg 82%
    17:00 +15°C° 0.3 mm 4 m/S 750 mmHg 85%
    18:00 +14°C° 0.3 mm 3 m/S 750 mmHg 88%
    19:00 +14°C° 0.5 mm 3 m/S 750 mmHg 90%
    20:00 +13°C° 0.5 mm 4 m/S 751 mmHg 92%
    21:00 +12°C° 0.5 mm 4 m/S 751 mmHg 94%
    22:00 +12°C° 0.1 mm 4 m/S 751 mmHg 94%
    23:00 +11°C° 0.1 mm 3 m/S 751 mmHg 95%
    Mehr zeigen